GW4572 Weather Reports


time (UTC)temp
C
wind
direction
speed
KPH
gust
KPH
rain 1hr
cm
rain 24hr
cm
rain mn
cm
humidity
%
barometer
mb
20260507231704 11 278 3.2 6.4 0.00 0.03 0.03 46 1013.8
20260507231201 11 278 3.2 6.4 0.00 0.03 0.03 46 1013.8
20260507230657 11 278 3.2 6.4 0.00 0.03 0.03 46 1013.8
20260507220809 12 284 6.4 9.7 0.00 0.03 0.03 46 1013.6
20260507220308 12 284 6.4 9.7 0.00 0.03 0.03 46 1013.6
20260507215804 12 284 6.4 9.7 0.00 0.03 0.03 46 1013.6
20260507215301 12 265 4.8 9.7 0.00 0.03 0.03 45 1013.6
20260507214758 12 297 3.2 6.4 0.00 0.03 0.03 47 1013.4
20260507214255 12 337 1.6 6.4 0.00 0.03 0.03 48 1013.4
20260507213750 12 243 4.8 11.3 0.00 0.03 0.03 44 1013.4
20260507213248 12 289 3.2 6.4 0.00 0.03 0.03 46 1013.6
20260507212744 13 291 9.7 12.9 0.00 0.03 0.03 45 1013.4
20260507212240 12 287 1.6 9.7 0.00 0.03 0.03 47 1013.3
20260507211737 13 280 8.0 12.9 0.00 0.03 0.03 47 1013.3
20260507211234 13 265 6.4 6.4 0.00 0.03 0.03 45 1013.0
20260507210731 13 279 3.2 6.4 0.00 0.03 0.03 42 1013.0
20260507210227 13 291 0.0 6.4 0.00 0.03 0.03 48 1013.1
20260507205724 13 320 3.2 12.9 0.00 0.03 0.03 46 1013.2
20260507205221 13 246 9.7 11.3 0.00 0.03 0.03 43 1012.9
20260507204717 13 265 3.2 11.3 0.00 0.03 0.03 47 1013.0
20260507204215 14 300 3.2 9.7 0.00 0.03 0.03 52 1012.9
20260507203713 13 276 4.8 9.7 0.00 0.03 0.03 45 1013.0
20260507203210 13 294 3.2 9.7 0.00 0.03 0.03 49 1013.4
20260507202705 12 258 4.8 9.7 0.00 0.03 0.03 50 1013.0
20260507202202 12 315 4.8 6.4 0.00 0.03 0.03 50 1013.1
20260507201656 12 272 4.8 11.3 0.00 0.03 0.03 48 1013.4
20260507163406 12 243 8.0 12.9 0.00 0.03 0.03 56 1014.8
20260507162902 12 243 8.0 12.9 0.00 0.03 0.03 56 1014.8
20260507162357 11 241 3.2 16.1 0.00 0.03 0.03 58 1014.9
20260507161855 11 259 9.7 17.7 0.00 0.03 0.03 58 1014.8
20260507161351 12 269 9.7 14.5 0.00 0.03 0.03 59 1014.9
20260507160848 11 256 12.9 14.5 0.00 0.03 0.03 58 1014.7
20260507160343 11 285 4.8 9.7 0.00 0.03 0.03 60 1014.8
20260507155840 11 260 3.2 6.4 0.00 0.03 0.03 60 1014.9
20260507155336 11 280 3.2 9.7 0.00 0.03 0.03 62 1015.1
20260507154833 11 273 6.4 11.3 0.00 0.03 0.03 60 1015.1
20260507154330 11 290 8.0 12.9 0.00 0.03 0.03 63 1015.2
20260507153827 11 269 4.8 6.4 0.00 0.03 0.03 63 1015.1
20260507153324 11 68 1.6 6.4 0.00 0.03 0.03 64 1015.1
20260507152820 11 296 1.6 3.2 0.00 0.03 0.03 64 1015.2
20260507152316 12 272 3.2 6.4 0.00 0.03 0.03 60 1015.3
20260507151812 11 293 4.8 6.4 0.00 0.03 0.03 63 1015.5
20260507151309 12 251 8.0 9.7 0.00 0.03 0.03 59 1015.3
20260507150806 11 249 6.4 9.7 0.00 0.03 0.03 61 1015.3
20260507150302 10 299 3.2 6.4 0.00 0.03 0.03 63 1015.3
20260507145759 11 250 1.6 6.4 0.00 0.03 0.03 69 1015.4
20260507145255 10 285 1.6 11.3 0.00 0.03 0.03 69 1015.6
20260507144752 10 296 1.6 6.4 0.00 0.03 0.03 68 1015.5
20260507144250 10 283 3.2 6.4 0.00 0.03 0.03 66 1015.6
20260507143746 10 296 8.0 9.7 0.00 0.03 0.03 70 1015.6
20260507143244 9 259 8.0 11.3 0.00 0.03 0.03 68 1015.8
20260507142739 9 281 3.2 4.8 0.00 0.03 0.03 69 1015.8
20260507142236 9 282 8.0 11.3 0.00 0.03 0.03 66 1016.0
20260507141732 8 274 6.4 11.3 0.00 0.03 0.03 71 1016.1
20260507141230 8 279 6.4 6.4 0.00 0.03 0.03 73 1015.9
20260507140725 8 264 3.2 6.4 0.00 0.03 0.03 70 1016.2
20260507140224 8 279 3.2 6.4 0.00 0.03 0.03 72 1016.4
20260507135720 9 266 6.4 6.4 0.00 0.03 0.03 68 1016.1
20260507135218 8 327 1.6 9.7 0.00 0.03 0.03 69 1016.2
20260507134714 8 287 4.8 6.4 0.00 0.03 0.03 69 1016.4
20260507134210 10 291 3.2 4.8 0.00 0.03 0.03 68 1016.2
20260507133706 9 293 0.0 4.8 0.00 0.03 0.03 74 1016.2
20260507133203 10 261 3.2 4.8 0.00 0.03 0.03 68 1016.2
20260507132701 9 298 3.2 4.8 0.00 0.03 0.03 75 1016.2
20260507132157 8 277 4.8 6.4 0.00 0.03 0.03 75 1016.4
20260507131654 8 269 3.2 3.2 0.00 0.03 0.03 76 1016.5
20260507131151 9 309 1.6 3.2 0.00 0.03 0.03 73 1016.4
20260507130647 7 74 1.6 3.2 0.00 0.03 0.03 83 1016.2
20260507130145 8 237 4.8 6.4 0.00 0.03 0.03 76 1016.5
20260507125644 8 7 0.0 1.6 0.00 0.03 0.03 79 1016.4
20260507125142 7 335 1.6 3.2 0.00 0.03 0.03 81 1016.5
20260507124637 7 266 0.0 1.6 0.00 0.03 0.03 81 1016.6
20260507124135 6 265 0.0 1.6 0.00 0.03 0.03 84 1016.6
20260507123633 6 265 0.0 0.0 0.00 0.03 0.03 81 1016.7
20260507123130 6 265 0.0 0.0 0.00 0.03 0.03 83 1016.7
20260507122625 6 265 0.0 0.0 0.00 0.03 0.03 85 1016.6
20260507122121 5 265 0.0 1.6 0.00 0.03 0.03 85 1016.6
20260507121617 5 265 0.0 1.6 0.00 0.03 0.03 85 1016.6
20260507121113 5 265 0.0 1.6 0.00 0.03 0.03 86 1016.6
20260507120609 5 265 0.0 1.6 0.00 0.03 0.03 87 1016.1
20260507120107 5 265 0.0 0.0 0.00 0.03 0.03 91 1016.4
20260507115603 5 265 0.0 0.0 0.00 0.03 0.03 92 1016.4
20260507115059 5 265 0.0 0.0 0.00 0.03 0.03 93 1016.5
20260507114555 5 265 0.0 0.0 0.00 0.03 0.03 94 1016.1
20260507114052 5 265 0.0 0.0 0.00 0.03 0.03 94 1016.0
20260507113549 5 265 0.0 0.0 0.00 0.03 0.03 94 1016.0
20260507113046 5 265 1.6 1.6 0.00 0.03 0.03 95 1016.0
20260507112544 5 265 0.0 0.0 0.00 0.03 0.03 95 1015.9
20260507112041 5 265 0.0 0.0 0.00 0.03 0.03 95 1016.0
20260507111538 5 265 0.0 0.0 0.00 0.03 0.03 95 1016.0
20260507111034 5 265 0.0 1.6 0.00 0.03 0.03 95 1016.0
20260507065514 6 267 0.0 0.0 0.00 0.00 0.00 96 1015.1
20260507065011 6 267 0.0 0.0 0.00 0.00 0.00 96 1015.1
20260507064509 6 267 0.0 0.0 0.00 0.00 0.00 96 1015.1
20260507064008 6 267 0.0 0.0 0.00 0.00 0.00 96 1014.9
20260507063504 6 267 0.0 0.0 0.00 0.00 0.00 96 1015.2
20260507063001 6 267 0.0 0.0 0.00 0.00 0.00 96 1015.3
20260507062458 6 267 1.6 1.6 0.00 0.00 0.00 96 1015.5
20260507061955 6 267 0.0 3.2 0.00 0.00 0.00 95 1015.3
20260507061453 6 267 3.2 3.2 0.00 0.00 0.00 95 1015.5
20260507060951 6 267 1.6 1.6 0.00 0.00 0.00 95 1015.4
20260507060448 6 267 1.6 3.2 0.00 0.00 0.00 95 1015.7
20260507055944 6 267 1.6 3.2 0.00 0.00 0.00 95 1015.8
20260507055440 6 266 0.0 3.2 0.00 0.00 0.00 95 1015.6
20260507054937 6 265 1.6 1.6 0.00 0.00 0.00 95 1015.8
20260507054433 6 265 1.6 3.2 0.00 0.00 0.00 95 1015.8
20260507053930 6 270 1.6 1.6 0.00 0.00 0.00 95 1015.8
20260507053428 6 270 1.6 3.2 0.00 0.00 0.00 95 1015.9
20260507052926 6 278 1.6 3.2 0.00 0.00 0.00 95 1015.9
20260507052423 6 278 1.6 1.6 0.00 0.00 0.00 96 1015.8
20260507051920 6 275 6.4 6.4 0.00 0.00 0.00 96 1015.9
20260507051418 6 288 0.0 0.0 0.00 0.00 0.00 96 1015.9
20260507050915 6 288 3.2 3.2 0.00 0.00 0.00 96 1015.9
20260507050411 6 289 1.6 1.6 0.00 0.00 0.00 96 1016.1
20260507045908 6 290 0.0 3.2 0.00 0.00 0.00 96 1016.0
20260507045404 6 289 1.6 3.2 0.00 0.00 0.00 96 1015.8
20260507044857 6 311 1.6 1.6 0.00 0.00 0.00 96 1015.7
20260507044353 6 292 1.6 4.8 0.00 0.00 0.00 96 1015.8
20260507043849 6 292 1.6 3.2 0.00 0.00 0.00 96 1015.7
20260507043346 6 305 0.0 0.0 0.00 0.00 0.00 96 1015.6
20260507042842 6 305 0.0 0.0 0.00 0.00 0.00 96 1015.4
20260507042338 6 305 0.0 0.0 0.00 0.00 0.00 96 1015.6
20260507041835 6 305 0.0 1.6 0.00 0.00 0.00 96 1015.4
20260507041331 7 305 0.0 0.0 0.00 0.00 0.00 96 1015.5
20260507040828 7 305 0.0 3.2 0.00 0.00 0.00 97 1015.9
20260507040324 7 277 0.0 0.0 0.00 0.69 0.69 97 1015.8
20260507035820 7 277 0.0 3.2 0.18 0.69 0.69 97 1015.6
20260507035316 7 277 0.0 0.0 0.18 0.69 0.69 97 1015.7
20260507034814 7 277 1.6 3.2 0.00 0.66 0.66 97 1015.8
20260507034310 7 277 0.0 3.2 0.00 0.66 0.66 97 1015.6
20260507033809 7 282 0.0 0.0 0.00 0.66 0.66 97 1015.7
20260507033306 7 282 3.2 4.8 0.00 0.66 0.66 97 1015.7
20260507032803 7 286 0.0 1.6 0.00 0.66 0.66 97 1015.5
20260507032259 7 286 0.0 3.2 0.00 0.66 0.66 97 1015.8
20260507031755 7 302 0.0 6.4 0.00 0.66 0.66 97 1016.0
20260507031252 7 279 0.0 0.0 0.00 0.66 0.66 97 1016.2
20260507030749 7 279 0.0 0.0 0.00 0.66 0.66 97 1015.5
20260507030246 7 279 0.0 0.0 0.00 0.66 0.66 97 1015.1
20260507025743 7 279 0.0 0.0 0.00 0.66 0.66 97 1015.2
20260507025240 7 279 0.0 0.0 0.00 0.66 0.66 97 1015.5
20260507024739 7 279 0.0 1.6 0.18 0.66 0.66 97 1015.8
20260507024236 8 279 1.6 3.2 0.18 0.66 0.66 97 1015.7
20260507023731 8 279 3.2 3.2 0.00 0.64 0.64 97 1015.6
20260507023228 8 305 0.0 0.0 0.00 0.64 0.64 97 1015.8
20260507022726 8 310 0.0 0.0 0.00 0.64 0.64 97 1015.4
20260507022221 8 307 0.0 0.0 0.00 0.64 0.64 97 1015.4
20260507021718 8 307 0.0 0.0 0.00 0.64 0.64 97 1015.4
20260507021213 8 307 0.0 0.0 0.00 0.64 0.64 97 1015.1
20260507020712 8 307 0.0 0.0 0.00 0.64 0.64 97 1015.3
20260507020207 8 291 0.0 0.0 0.00 0.64 0.64 97 1014.9
20260507015706 8 286 0.0 0.0 0.00 0.64 0.64 97 1014.6
20260507015203 8 286 0.0 0.0 0.00 0.64 0.64 97 1015.1
20260507014659 8 287 0.0 0.0 0.00 0.64 0.64 97 1015.1
20260507014155 8 287 1.6 3.2 0.00 0.64 0.64 96 1014.9
20260507013652 8 263 3.2 4.8 0.00 0.64 0.64 96 1014.9
20260507013149 8 297 0.0 4.8 0.00 0.64 0.64 96 1015.1
20260507012647 8 299 4.8 4.8 0.00 0.64 0.64 96 1015.2
20260507012142 8 264 3.2 4.8 0.00 0.64 0.64 96 1015.2
20260507011641 8 267 3.2 9.7 0.00 0.64 0.64 96 1015.3
20260507011136 8 297 1.6 3.2 0.00 0.64 0.64 96 1015.2
20260507010631 8 279 3.2 4.8 0.00 0.64 0.64 96 1014.9
20260507010127 8 255 1.6 3.2 0.00 0.64 0.64 96 1014.5
20260507005625 8 255 1.6 4.8 0.00 0.64 0.64 96 1015.1
20260507005121 8 271 0.0 0.0 0.00 0.64 0.64 96 1015.4
20260507004618 8 271 1.6 3.2 0.00 0.64 0.64 96 1014.9
20260507004116 8 286 0.0 4.8 0.00 0.64 0.64 96 1014.6
20260507003612 8 51 1.6 1.6 0.00 0.64 0.64 96 1014.7
20260507003106 8 288 0.0 0.0 0.00 0.64 0.64 95 1014.6
20260507002603 8 288 0.0 3.2 0.00 0.64 0.64 95 1014.6
20260507002059 8 299 0.0 6.4 0.00 0.64 0.64 95 1014.6
20260507001556 9 288 4.8 9.7 0.00 0.64 0.64 95 1014.8
20260507001054 9 257 3.2 3.2 0.00 0.64 0.64 95 1015.3
20260507000549 9 297 6.4 6.4 0.00 0.64 0.64 95 1015.4
20260507000045 9 299 1.6 3.2 0.00 0.64 0.64 95 1014.8
20260506235543 9 280 6.4 6.4 0.00 0.64 0.64 95 1014.8
20260506235038 9 261 6.4 6.4 0.00 0.64 0.64 95 1014.7
20260506234536 9 262 6.4 6.4 0.00 0.64 0.64 94 1014.7
20260506234028 9 264 6.4 6.4 0.00 0.64 0.64 95 1014.6
20260506233524 10 79 3.2 3.2 0.00 0.64 0.64 95 1014.5
20260506233016 10 359 0.0 4.8 0.00 0.64 0.64 95 1014.5
20260506232512 10 305 6.4 9.7 0.00 0.64 0.64 95 1014.8
20260506232007 10 261 3.2 6.4 0.00 0.64 0.64 95 1014.8